ONEWEB-0068, 45446

Orbit data source: Space-Track

ONEWEB-0068, 45446 is a payload satellite owned by One Web (UK) in LEO that was launched on Sat, 21 Mar 2020 UTC via a SOYUZ-2-1B launch vehicle from the Tyuratam Missile And Space Complex (TTMTR). Payload-class satellites include a variety of spacecraft equipped with specific instruments for various scientific and technological missions. These include communications satellites like Starlink; space stations such as the ISS; scientific satellites like the Hubble; Earth observation satellites from companies like Planet Labs, Umbra, and HawkEye 360; GPS; miniature CubeSats for education and research; and military/defense satellites.

Loading next visibility...
Identifier
45446, 2020-020Y
Orbit
LEO
Country
Flag of UKUK
Related business
Manufacturer
One Web
Mission
Operational Commercial Communications
Bus & Motor
ARROW, Unknown motor
Mass
148 kg wet, ~140 kg dry
Launch date (UTC)
2020-03-21 (6 years ago)
Launch vehicle
SOYUZ-2-1B
Launch site
Tyuratam Missile And Space Complex (TTMTR)
Object type
Payload
Rocket body
Debris
Shape & HBR
Trap Box + 2 Pan, 6.7 m
Radar Cross Section
3.464 m², Large (>1 m²)

Expand to show TLE details & history
Last TLE update: 3 days ago

TLE from 3 days ago
0 ONEWEB-0068
1 45446U 20020Y   26170.59483473 -.00000199  00000-0 -59608-3 0  9998
2 45446  87.8894  20.5846 0001696  80.4669 279.6651 13.11413879302918
Epoch: 2026-06-19T14:16Z
TLE epoch observation values (Epoch: 2026-06-19T14:16:33.720Z)
Latitude
0.00001°
Longitude
-101.37746°
Altitude
1,220.368 km
Speed
7.244 km/s
True Right ascension
01h 22m 20s
True Declination
0° 00' 00"
Sunlit
Object was in daylight at epoch
Visualization orbit readout
Latitude
Unknown
Longitude
Unknown
Altitude
Unknown
Speed
Unknown
Apparent Right ascension
Unknown
Apparent Declination
Unknown
Sunlit
N/A
Visualization observer readout
Local Sidereal Time
21:36:48
Azimuth
Unknown
Elevation
Unknown
Doppler factor
Unknown
Orbital elements
Apogee altitude
1,216.101 km
Perigee altitude
1,213.525 km
Semi-major axis
7,592.95 km
Eccentricity
0.00017
Inclination
87.8894°
RAAN
20.5846°
Arg. of periapsis
80.4669°
True anomaly
279.64594°
Mean anomaly
279.6651°
Eccentric anomaly
279.65552°
Mean motion
3.2804 °/min
Orbital period
109.74 mins
BSTAR
-0.00059608
Loading maneuver chart data...
Computing Atmospheric mass density...
Loading historical data...
Loading historical data...
Loading historical data...
Loading historical data...
Loading historical data...
Loading historical data...
Loading historical data...

Documentation

Showing up to 5 results
|